Location: Newark
(45.9456°N, 15.4064°E)
Time: 20:12:29
(UTC+00:00)

SR - Pass Details

Date: 01 February 2020
Orbit: 575 x 881 km, 66.7° (Epoch: 19 February)

Event Time Altitude Azimuth Distance (km) Brightness Sun altitude
Rises 19:55:20 0° 221° (SW) 3,423 ? -40.2°
Enters shadow 19:56:49 - 223° (SW) 2,875 ? -40.5°
Reaches altitude 10° 19:57:49 10° 225° (SW) 2,510 - -40.6°
Maximum altitude 20:03:39 64° 306° (NW) 970 - -41.6°
Drops below altitude 10° 20:09:32 10° 29° (NNE) 2,528 - -42.5°
Sets 20:12:02 0° 32° (NNE) 3,449 - -42.9°
